OBJECT E, 61898

Orbit data source: Space-Track

You're viewing an Uncataloged Satellite

Recently launched and/or uncataloged satellites may have evolving metadata. Metadata may include but not limited to: Owner, Maufacturer, Bus, Motor, and Mission.

OBJECT E, 61898 is a Chinese satellite in SSO that was launched on Mon, 11 Nov 2024 UTC via a LIJIAN-1 launch vehicle from the Jiuquan Satellite Launch Center, China (JSC). Unknown objects in Earth's orbit typically refer to objects detected orbiting the Earth but have not yet been identified or cataloged. These objects could be anything from previously untracked satellites, spent rocket stages, debris from satellite collisions, or even natural meteoroids temporarily captured by Earth's gravity.

Loading next visibility...
OBJECT E details
Identifier
61898, 2024-205E
Orbit
SSO
Last TLE update15 hours ago
Origin
Flag of CNCGSTL/ISCAS (CN / PRC)
ManufacturerChangguang WJ
MissionOperational spacecraft
Bus & MotorJL-1, Unknown motor
Mass42 kg wet, 42 kg dry
Launch date (UTC)
2024-11-11 (1 month ago)
Launch vehicle
LIJIAN-1
Launch site
Jiuquan Satellite Launch Center, China (JSC)
Object typeUnknown
Shape & HBRUnknown
Radar Cross SectionMedium (>0.1 m² and <1 m²)

Expand to show TLE details & history

TLE from 15 hours ago
0 OBJECT E
1 61898U 24205E   24348.31154442  .00015100  00000-0  79319-3 0  9999
2 61898  97.4727  59.9452 0014678 167.3861 192.7742 15.15702820  4830
Epoch: 2024-12-13T07:28Z
Definitive object data (Epoch: 2024-12-13T07:28:37.437Z)
Latitude-0.00003°
Longitude-134.69012°
Altitude531.804 km
Speed7.591 km/s
True Right ascension03h 59m 46s
True Declination0° 00' 00"
Sunlit
Object was in full shadow at TLE epoch
Visualization TLE readout
Latitude82.27649°
Longitude151.79001°
Altitude530.103 km
Speed7.606 km/s
Apparent Right ascension08h 08m 47s
Apparent Declination33° 19' 11"
Sunlit
Object is in partial shadow
Visualization observer readout
Local Sidereal Time20:39:16
Azimuth6.633° NNE
Elevation-16.426°
Doppler factor1
Orbital elements
Apogee altitude525.939 km
Perigee altitude505.701 km
Semi-major axis6,893.957 km
Eccentricity0.0014678
Inclination97.4727°
RAAN59.9452°
Arg. of periapsis167.3861°
True anomaly192.73708°
Mean anomaly192.7742°
Eccentric anomaly192.75563°
Mean motion3.79176 °/min
BSTAR0.00079319
Orbital period94.94 mins
Loading maneuver chart data...
Loading historical data...
Loading historical data...
Loading historical data...
Loading historical data...
Loading historical data...
Loading historical data...
Loading historical data...

OBJECT E Visibility forecast

Observer location: undefined°, undefined

Span
Click to sort rows by Start time (UTC) header in descending order
Start Az.
Max El. time (UTC)
Max El. Az.
Max El.
End time (UTC)
End Az.
5 mins2024-12-14 04:13:25.190Z114.546° SE2024-12-14 04:15:25.190Z79.027° E19.883°2024-12-14 04:18:25.190Z22.106° NNE
4 mins2024-12-14 05:48:25.190Z232.102° WSW2024-12-14 05:49:25.190Z254.259° W21.596°2024-12-14 05:52:25.190Z314.473° NW
5 mins2024-12-14 17:20:25.190Z51.102° ENE2024-12-14 17:22:25.190Z107.329° ESE27.326°2024-12-14 17:25:25.190Z161.436° S
|